Weather in Krasivoye

Russia / Jewish Autonomous Oblast     48°17′04″N   132°32′18″E
temp.,
°C
wind,
m/s
gust,
m/s
humid.,
%
clouds,
%
prec.,
mm/h
press.,
hPa
HPBL,
m
19 september, sun
sun1901:00+7wnw227192 0.0 101920
04:00+7wsw227099 0.0 101924
07:00+7wsw2266100 0.0 101925
10:00+10w2362100 0.1 1020238
13:00+14w3446100 0.1 10181054
16:00+15w45415 0.1 10171758
19:00+11wsw49617 0.0 1018260
22:00+7sw34820 0.0 102069
20 september, mon
mon2001:00+6wsw22850 0.0 102023
04:00+6wsw22810 0.0 102019
07:00+5sw22795 0.0 102117
10:00+13wsw235433 0.0 1021336
13:00+16sw3440100 0.0 10191056
16:00+18wsw3434100 0.0 10171170
19:00+12ssw1152100 0.0 101711
22:00+10s2254100 0.0 101614
21 september, tue
tue2101:00+10sse2257100 0.0 101619
04:00+10e1157100 0.0 101411
07:00+11e2254100 0.0 101349
10:00+13ese2354100 0.0 1013248
13:00+10e2388100 1.0 1012178
16:00+10ene3597100 3.6 1011221
19:00+10ene3799100 3.1 1010317
22:00+10ene41198100 6.6 1010520
22 september, wed
wed2201:00+10ene51497100 1.1 1009601
04:00+9ene61496100 3.3 1009665
07:00+9ene51588100 0.3 1009671
10:00+10ene51585100 0.6 1010686
13:00+10ene61483100 0.3 1010738
16:00+11ene51384100 0.3 1011740
19:00+11ene61481100 0.0 1012794
22:00+12ene61473100 0.0 1014808
23 september, thu
thu2301:00+11ene61476100 0.3 1015769
04:00+10ene51486100 1.6 1016649
07:00+8ene41386100 1.1 1018607
10:00+8ene51490100 3.4 1019622
13:00+9ene41289100 3.8 1020637
16:00+9ene31192100 8.5 1021605
19:00+9e2893100 2.5 1022302
22:00+9ne229382 2.7 102345